Location: Bukovany
(49.8234°N, 14.6297°E)
Time: 16:48:14
(UTC+00:00)

ATLAS 2AS CENTAUR R/B - Pass Details

Date: 17 November 2025
Orbit: 1047 x 1163 km, 63.7° (Epoch: 12 December)

Event Time Altitude Azimuth Distance (km) Brightness Sun altitude
Rises 18:16:31 0° 317° (NW) 3,852 6.3 -29.0°
Reaches altitude 10° 18:19:12 10° 319° (NW) 2,884 5.5 -29.4°
Enters shadow 18:25:35 72° 13° (NNE) 1,103 2.6 -30.4°
